Retour au catalogue

STARLINK-34119

ActifCommunicationsVLEO
NORAD 63895·PAYLOAD·🇺🇸 United States

Lancé May 10, 2025 depuis Cape Canaveral Space Force Station

Loading…

Prochains Passages (prochaines 24 heures)

TLE

FraisSource: CelesTrak SupGP

Époque: Sep 14, 2026, 21:41 UTC

1 63895C 25095F   26257.90395833 -.00002992  00000+0 -10836-3 0  2575
2 63895  43.0006 187.8870 0000925 255.6674  73.1120 15.27580780    14

Suivez STARLINK-34119 en temps réel avec AllMySat

Download on the App Store